owner,sensor,date,latitude,longitude,sea_surface_height_above_sea_level,qcFlag 
WAVCIS,ioos:station:WAVCIS:CSI09:1,2011-05-01T00:00:00Z,29.1015,-89.9782,-9999.0,1111122 
WAVCIS,ioos:station:WAVCIS:CSI09:1,2011-05-01T01:00:00Z,29.1015,-89.9782,-9999.0,1111122 
WAVCIS,ioos:station:WAVCIS:CSI09:1,2011-05-01T02:00:00Z,29.1015,-89.9782,-9999.0,1111122 
WAVCIS,ioos:station:WAVCIS:CSI09:1,2011-05-01T03:00:00Z,29.1015,-89.9782,-9999.0,1111122 
WAVCIS,ioos:station:WAVCIS:CSI09:1,2011-05-01T04:00:00Z,29.1015,-89.9782,-9999.0,1111122 
WAVCIS,ioos:station:WAVCIS:CSI09:1,2011-05-01T05:00:00Z,29.1015,-89.9782,-9999.0,1111122 
WAVCIS,ioos:station:WAVCIS:CSI09:1,2011-05-01T06:00:00Z,29.1015,-89.9782,-9999.0,1111122 
WAVCIS,ioos:station:WAVCIS:CSI09:1,2011-05-01T07:00:00Z,29.1015,-89.9782,-9999.0,1111122 
WAVCIS,ioos:station:WAVCIS:CSI09:1,2011-05-01T08:00:00Z,29.1015,-89.9782,-9999.0,1111122 
WAVCIS,ioos:station:WAVCIS:CSI09:1,2011-05-01T09:00:00Z,29.1015,-89.9782,-9999.0,1111122 
WAVCIS,ioos:station:WAVCIS:CSI09:1,2011-05-01T10:00:00Z,29.1015,-89.9782,-9999.0,1111122 
WAVCIS,ioos:station:WAVCIS:CSI09:1,2011-05-01T11:00:00Z,29.1015,-89.9782,-9999.0,1111122 
WAVCIS,ioos:station:WAVCIS:CSI09:1,2011-05-01T12:00:00Z,29.1015,-89.9782,-9999.0,1111122 
WAVCIS,ioos:station:WAVCIS:CSI09:1,2011-05-01T13:00:00Z,29.1015,-89.9782,-9999.0,1111122 
WAVCIS,ioos:station:WAVCIS:CSI09:1,2011-05-01T14:00:00Z,29.1015,-89.9782,-9999.0,1111122 
WAVCIS,ioos:station:WAVCIS:CSI09:1,2011-05-01T15:00:00Z,29.1015,-89.9782,-9999.0,1111122 
WAVCIS,ioos:station:WAVCIS:CSI09:1,2011-05-01T16:00:00Z,29.1015,-89.9782,-9999.0,1111122 
WAVCIS,ioos:station:WAVCIS:CSI09:1,2011-05-01T17:00:00Z,29.1015,-89.9782,-9999.0,1111122 
WAVCIS,ioos:station:WAVCIS:CSI09:1,2011-05-01T18:00:00Z,29.1015,-89.9782,-9999.0,1111122 
WAVCIS,ioos:station:WAVCIS:CSI09:1,2011-05-01T19:00:00Z,29.1015,-89.9782,-9999.0,1111122 
WAVCIS,ioos:station:WAVCIS:CSI09:1,2011-05-01T20:00:00Z,29.1015,-89.9782,-9999.0,1111122 
WAVCIS,ioos:station:WAVCIS:CSI09:1,2011-05-01T21:00:00Z,29.1015,-89.9782,-9999.0,1111122 
WAVCIS,ioos:station:WAVCIS:CSI09:1,2011-05-01T22:00:00Z,29.1015,-89.9782,-9999.0,1111122 
WAVCIS,ioos:station:WAVCIS:CSI09:1,2011-05-01T23:00:00Z,29.1015,-89.9782,-9999.0,1111122 
WAVCIS,ioos:station:WAVCIS:CSI09:1,2011-05-02T00:00:00Z,29.1015,-89.9782,-9999.0,1111122 
WAVCIS,ioos:station:WAVCIS:CSI09:1,2011-05-02T01:00:00Z,29.1015,-89.9782,-9999.0,1111122 
WAVCIS,ioos:station:WAVCIS:CSI09:1,2011-05-02T02:00:00Z,29.1015,-89.9782,-9999.0,1111122 
WAVCIS,ioos:station:WAVCIS:CSI09:1,2011-05-02T03:00:00Z,29.1015,-89.9782,-9999.0,1111122 
WAVCIS,ioos:station:WAVCIS:CSI09:1,2011-05-02T04:00:00Z,29.1015,-89.9782,-9999.0,1111122 
WAVCIS,ioos:station:WAVCIS:CSI09:1,2011-05-02T05:00:00Z,29.1015,-89.9782,-9999.0,1111122 
WAVCIS,ioos:station:WAVCIS:CSI09:1,2011-05-02T06:00:00Z,29.1015,-89.9782,-9999.0,1111122 
WAVCIS,ioos:station:WAVCIS:CSI09:1,2011-05-02T07:00:00Z,29.1015,-89.9782,-9999.0,1111122 
WAVCIS,ioos:station:WAVCIS:CSI09:1,2011-05-02T08:00:00Z,29.1015,-89.9782,-9999.0,1111122 
WAVCIS,ioos:station:WAVCIS:CSI09:1,2011-05-02T09:00:00Z,29.1015,-89.9782,-9999.0,1111122 
WAVCIS,ioos:station:WAVCIS:CSI09:1,2011-05-02T10:00:00Z,29.1015,-89.9782,-9999.0,1111122 
WAVCIS,ioos:station:WAVCIS:CSI09:1,2011-05-02T11:00:00Z,29.1015,-89.9782,-9999.0,1111122 
WAVCIS,ioos:station:WAVCIS:CSI09:1,2011-05-02T12:00:00Z,29.1015,-89.9782,-9999.0,1111122 
WAVCIS,ioos:station:WAVCIS:CSI09:1,2011-05-02T13:00:00Z,29.1015,-89.9782,-9999.0,1111122 
WAVCIS,ioos:station:WAVCIS:CSI09:1,2011-05-02T14:00:00Z,29.1015,-89.9782,-9999.0,1111122 
WAVCIS,ioos:station:WAVCIS:CSI09:1,2011-05-02T15:00:00Z,29.1015,-89.9782,-9999.0,1111122 
WAVCIS,ioos:station:WAVCIS:CSI09:1,2011-05-02T16:00:00Z,29.1015,-89.9782,-9999.0,1111122 
WAVCIS,ioos:station:WAVCIS:CSI09:1,2011-05-02T17:00:00Z,29.1015,-89.9782,-9999.0,1111122 
WAVCIS,ioos:station:WAVCIS:CSI09:1,2011-05-02T18:00:00Z,29.1015,-89.9782,-9999.0,1111122 
WAVCIS,ioos:station:WAVCIS:CSI09:1,2011-05-02T19:00:00Z,29.1015,-89.9782,-9999.0,1111122 
WAVCIS,ioos:station:WAVCIS:CSI09:1,2011-05-02T20:00:00Z,29.1015,-89.9782,-9999.0,1111122 
WAVCIS,ioos:station:WAVCIS:CSI09:1,2011-05-02T21:00:00Z,29.1015,-89.9782,-9999.0,1111122 
WAVCIS,ioos:station:WAVCIS:CSI09:1,2011-05-02T22:00:00Z,29.1015,-89.9782,-9999.0,1111122 
WAVCIS,ioos:station:WAVCIS:CSI09:1,2011-05-02T23:00:00Z,29.1015,-89.9782,-9999.0,1111122 
WAVCIS,ioos:station:WAVCIS:CSI09:1,2011-05-03T00:00:00Z,29.1015,-89.9782,-9999.0,1111122 
WAVCIS,ioos:station:WAVCIS:CSI09:1,2011-05-03T01:00:00Z,29.1015,-89.9782,-9999.0,1111122 
WAVCIS,ioos:station:WAVCIS:CSI09:1,2011-05-03T02:00:00Z,29.1015,-89.9782,-9999.0,1111122 
WAVCIS,ioos:station:WAVCIS:CSI09:1,2011-05-03T03:00:00Z,29.1015,-89.9782,-9999.0,1111122 
WAVCIS,ioos:station:WAVCIS:CSI09:1,2011-05-03T04:00:00Z,29.1015,-89.9782,-9999.0,1111122 
WAVCIS,ioos:station:WAVCIS:CSI09:1,2011-05-03T05:00:00Z,29.1015,-89.9782,-9999.0,1111122 
WAVCIS,ioos:station:WAVCIS:CSI09:1,2011-05-03T06:00:00Z,29.1015,-89.9782,-9999.0,1111122 
WAVCIS,ioos:station:WAVCIS:CSI09:1,2011-05-03T07:00:00Z,29.1015,-89.9782,-9999.0,1111122 
WAVCIS,ioos:station:WAVCIS:CSI09:1,2011-05-03T08:00:00Z,29.1015,-89.9782,-9999.0,1111122 
WAVCIS,ioos:station:WAVCIS:CSI09:1,2011-05-03T09:00:00Z,29.1015,-89.9782,-9999.0,1111122 
WAVCIS,ioos:station:WAVCIS:CSI09:1,2011-05-03T10:00:00Z,29.1015,-89.9782,-9999.0,1111122 
WAVCIS,ioos:station:WAVCIS:CSI09:1,2011-05-03T11:00:00Z,29.1015,-89.9782,-9999.0,1111122 
WAVCIS,ioos:station:WAVCIS:CSI09:1,2011-05-03T12:00:00Z,29.1015,-89.9782,-9999.0,1111122 
WAVCIS,ioos:station:WAVCIS:CSI09:1,2011-05-03T13:00:00Z,29.1015,-89.9782,-9999.0,1111122 
WAVCIS,ioos:station:WAVCIS:CSI09:1,2011-05-03T14:00:00Z,29.1015,-89.9782,-9999.0,1111122 
WAVCIS,ioos:station:WAVCIS:CSI09:1,2011-05-03T15:00:00Z,29.1015,-89.9782,-9999.0,1111122 
WAVCIS,ioos:station:WAVCIS:CSI09:1,2011-05-03T16:00:00Z,29.1015,-89.9782,-9999.0,1111122 
WAVCIS,ioos:station:WAVCIS:CSI09:1,2011-05-03T17:00:00Z,29.1015,-89.9782,-9999.0,1111122 
WAVCIS,ioos:station:WAVCIS:CSI09:1,2011-05-03T18:00:00Z,29.1015,-89.9782,-9999.0,1111122 
WAVCIS,ioos:station:WAVCIS:CSI09:1,2011-05-03T19:00:00Z,29.1015,-89.9782,-9999.0,1111122 
WAVCIS,ioos:station:WAVCIS:CSI09:1,2011-05-03T20:00:00Z,29.1015,-89.9782,-9999.0,1111122 
WAVCIS,ioos:station:WAVCIS:CSI09:1,2011-05-03T21:00:00Z,29.1015,-89.9782,-9999.0,1111122 
WAVCIS,ioos:station:WAVCIS:CSI09:1,2011-05-03T22:00:00Z,29.1015,-89.9782,-9999.0,1111122 
WAVCIS,ioos:station:WAVCIS:CSI09:1,2011-05-03T23:00:00Z,29.1015,-89.9782,-9999.0,1111122 
WAVCIS,ioos:station:WAVCIS:CSI09:1,2011-05-04T00:00:00Z,29.1015,-89.9782,-9999.0,1111122 
WAVCIS,ioos:station:WAVCIS:CSI09:1,2011-05-04T01:00:00Z,29.1015,-89.9782,-9999.0,1111122 
WAVCIS,ioos:station:WAVCIS:CSI09:1,2011-05-04T02:00:00Z,29.1015,-89.9782,-9999.0,1111122 
WAVCIS,ioos:station:WAVCIS:CSI09:1,2011-05-04T03:00:00Z,29.1015,-89.9782,-9999.0,1111122 
WAVCIS,ioos:station:WAVCIS:CSI09:1,2011-05-04T04:00:00Z,29.1015,-89.9782,-9999.0,1111122 
WAVCIS,ioos:station:WAVCIS:CSI09:1,2011-05-04T05:00:00Z,29.1015,-89.9782,-9999.0,1111122 
WAVCIS,ioos:station:WAVCIS:CSI09:1,2011-05-04T06:00:00Z,29.1015,-89.9782,-9999.0,1111122 
WAVCIS,ioos:station:WAVCIS:CSI09:1,2011-05-04T07:00:00Z,29.1015,-89.9782,-9999.0,1111122 
WAVCIS,ioos:station:WAVCIS:CSI09:1,2011-05-04T08:00:00Z,29.1015,-89.9782,-9999.0,1111122 
WAVCIS,ioos:station:WAVCIS:CSI09:1,2011-05-04T09:00:00Z,29.1015,-89.9782,-9999.0,1111122 
WAVCIS,ioos:station:WAVCIS:CSI09:1,2011-05-04T10:00:00Z,29.1015,-89.9782,-9999.0,1111122 
WAVCIS,ioos:station:WAVCIS:CSI09:1,2011-05-04T11:00:00Z,29.1015,-89.9782,-9999.0,1111122 
WAVCIS,ioos:station:WAVCIS:CSI09:1,2011-05-04T12:00:00Z,29.1015,-89.9782,-9999.0,1111122 
WAVCIS,ioos:station:WAVCIS:CSI09:1,2011-05-04T13:00:00Z,29.1015,-89.9782,-9999.0,1111122 
WAVCIS,ioos:station:WAVCIS:CSI09:1,2011-05-04T14:00:00Z,29.1015,-89.9782,-9999.0,1111122 
WAVCIS,ioos:station:WAVCIS:CSI09:1,2011-05-04T15:00:00Z,29.1015,-89.9782,-9999.0,1111122 
WAVCIS,ioos:station:WAVCIS:CSI09:1,2011-05-04T16:00:00Z,29.1015,-89.9782,-9999.0,1111122 
WAVCIS,ioos:station:WAVCIS:CSI09:1,2011-05-04T17:00:00Z,29.1015,-89.9782,-9999.0,1111122 
WAVCIS,ioos:station:WAVCIS:CSI09:1,2011-05-04T18:00:00Z,29.1015,-89.9782,-9999.0,1111122 
WAVCIS,ioos:station:WAVCIS:CSI09:1,2011-05-04T19:00:00Z,29.1015,-89.9782,-9999.0,1111122 
WAVCIS,ioos:station:WAVCIS:CSI09:1,2011-05-04T20:00:00Z,29.1015,-89.9782,-9999.0,1111122 
WAVCIS,ioos:station:WAVCIS:CSI09:1,2011-05-04T21:00:00Z,29.1015,-89.9782,-9999.0,1111122 
WAVCIS,ioos:station:WAVCIS:CSI09:1,2011-05-04T22:00:00Z,29.1015,-89.9782,-9999.0,1111122 
WAVCIS,ioos:station:WAVCIS:CSI09:1,2011-05-04T23:00:00Z,29.1015,-89.9782,-9999.0,1111122 
WAVCIS,ioos:station:WAVCIS:CSI09:1,2011-05-05T00:00:00Z,29.1015,-89.9782,-9999.0,1111122 
WAVCIS,ioos:station:WAVCIS:CSI09:1,2011-05-05T01:00:00Z,29.1015,-89.9782,-9999.0,1111122 
WAVCIS,ioos:station:WAVCIS:CSI09:1,2011-05-05T02:00:00Z,29.1015,-89.9782,-9999.0,1111122 
WAVCIS,ioos:station:WAVCIS:CSI09:1,2011-05-05T03:00:00Z,29.1015,-89.9782,-9999.0,1111122 
WAVCIS,ioos:station:WAVCIS:CSI09:1,2011-05-05T04:00:00Z,29.1015,-89.9782,-9999.0,1111122 
WAVCIS,ioos:station:WAVCIS:CSI09:1,2011-05-05T05:00:00Z,29.1015,-89.9782,-9999.0,1111122 
WAVCIS,ioos:station:WAVCIS:CSI09:1,2011-05-05T06:00:00Z,29.1015,-89.9782,-9999.0,1111122 
WAVCIS,ioos:station:WAVCIS:CSI09:1,2011-05-05T07:00:00Z,29.1015,-89.9782,-9999.0,1111122 
WAVCIS,ioos:station:WAVCIS:CSI09:1,2011-05-05T08:00:00Z,29.1015,-89.9782,-9999.0,1111122 
WAVCIS,ioos:station:WAVCIS:CSI09:1,2011-05-05T09:00:00Z,29.1015,-89.9782,-9999.0,1111122 
WAVCIS,ioos:station:WAVCIS:CSI09:1,2011-05-05T10:00:00Z,29.1015,-89.9782,-9999.0,1111122 
WAVCIS,ioos:station:WAVCIS:CSI09:1,2011-05-05T11:00:00Z,29.1015,-89.9782,-9999.0,1111122 
WAVCIS,ioos:station:WAVCIS:CSI09:1,2011-05-05T12:00:00Z,29.1015,-89.9782,-9999.0,1111122 
WAVCIS,ioos:station:WAVCIS:CSI09:1,2011-05-05T13:00:00Z,29.1015,-89.9782,-9999.0,1111122 
WAVCIS,ioos:station:WAVCIS:CSI09:1,2011-05-05T14:00:00Z,29.1015,-89.9782,-9999.0,1111122 
WAVCIS,ioos:station:WAVCIS:CSI09:1,2011-05-05T15:00:00Z,29.1015,-89.9782,-9999.0,1111122 
WAVCIS,ioos:station:WAVCIS:CSI09:1,2011-05-05T16:00:00Z,29.1015,-89.9782,-9999.0,1111122 
WAVCIS,ioos:station:WAVCIS:CSI09:1,2011-05-05T17:00:00Z,29.1015,-89.9782,-9999.0,1111122 
WAVCIS,ioos:station:WAVCIS:CSI09:1,2011-05-05T18:00:00Z,29.1015,-89.9782,-9999.0,1111122 
WAVCIS,ioos:station:WAVCIS:CSI09:1,2011-05-05T19:00:00Z,29.1015,-89.9782,-9999.0,1111122 
WAVCIS,ioos:station:WAVCIS:CSI09:1,2011-05-05T20:00:00Z,29.1015,-89.9782,-9999.0,1111122 
WAVCIS,ioos:station:WAVCIS:CSI09:1,2011-05-05T21:00:00Z,29.1015,-89.9782,-9999.0,1111122 
WAVCIS,ioos:station:WAVCIS:CSI09:1,2011-05-05T22:00:00Z,29.1015,-89.9782,-9999.0,1111122 
WAVCIS,ioos:station:WAVCIS:CSI09:1,2011-05-05T23:00:00Z,29.1015,-89.9782,-9999.0,1111122 
WAVCIS,ioos:station:WAVCIS:CSI09:1,2011-05-06T00:00:00Z,29.1015,-89.9782,-9999.0,1111122 
WAVCIS,ioos:station:WAVCIS:CSI09:1,2011-05-06T01:00:00Z,29.1015,-89.9782,-9999.0,1111122 
WAVCIS,ioos:station:WAVCIS:CSI09:1,2011-05-06T02:00:00Z,29.1015,-89.9782,-9999.0,1111122 
WAVCIS,ioos:station:WAVCIS:CSI09:1,2011-05-06T03:00:00Z,29.1015,-89.9782,-9999.0,1111122 
WAVCIS,ioos:station:WAVCIS:CSI09:1,2011-05-06T04:00:00Z,29.1015,-89.9782,-9999.0,1111122 
WAVCIS,ioos:station:WAVCIS:CSI09:1,2011-05-06T05:00:00Z,29.1015,-89.9782,-9999.0,1111122 
WAVCIS,ioos:station:WAVCIS:CSI09:1,2011-05-06T06:00:00Z,29.1015,-89.9782,-9999.0,1111122 
WAVCIS,ioos:station:WAVCIS:CSI09:1,2011-05-06T07:00:00Z,29.1015,-89.9782,-9999.0,1111122 
WAVCIS,ioos:station:WAVCIS:CSI09:1,2011-05-06T08:00:00Z,29.1015,-89.9782,-9999.0,1111122 
WAVCIS,ioos:station:WAVCIS:CSI09:1,2011-05-06T09:00:00Z,29.1015,-89.9782,-9999.0,1111122 
WAVCIS,ioos:station:WAVCIS:CSI09:1,2011-05-06T10:00:00Z,29.1015,-89.9782,-9999.0,1111122 
WAVCIS,ioos:station:WAVCIS:CSI09:1,2011-05-06T11:00:00Z,29.1015,-89.9782,-9999.0,1111122 
WAVCIS,ioos:station:WAVCIS:CSI09:1,2011-05-06T12:00:00Z,29.1015,-89.9782,-9999.0,1111122 
WAVCIS,ioos:station:WAVCIS:CSI09:1,2011-05-06T13:00:00Z,29.1015,-89.9782,-9999.0,1111122 
WAVCIS,ioos:station:WAVCIS:CSI09:1,2011-05-06T14:00:00Z,29.1015,-89.9782,-9999.0,1111122 
WAVCIS,ioos:station:WAVCIS:CSI09:1,2011-05-06T15:00:00Z,29.1015,-89.9782,-9999.0,1111122 
WAVCIS,ioos:station:WAVCIS:CSI09:1,2011-05-06T16:00:00Z,29.1015,-89.9782,-9999.0,1111122 
WAVCIS,ioos:station:WAVCIS:CSI09:1,2011-05-06T17:00:00Z,29.1015,-89.9782,-9999.0,1111122 
WAVCIS,ioos:station:WAVCIS:CSI09:1,2011-05-06T18:00:00Z,29.1015,-89.9782,-9999.0,1111122 
WAVCIS,ioos:station:WAVCIS:CSI09:1,2011-05-06T19:00:00Z,29.1015,-89.9782,-9999.0,1111122 
WAVCIS,ioos:station:WAVCIS:CSI09:1,2011-05-06T20:00:00Z,29.1015,-89.9782,0.4598,1111122 
WAVCIS,ioos:station:WAVCIS:CSI09:1,2011-05-06T20:00:00Z,29.1015,-89.9782,0.4598,11111222 
WAVCIS,ioos:station:WAVCIS:CSI09:1,2011-05-06T21:00:00Z,29.1015,-89.9782,0.3798,1111122 
WAVCIS,ioos:station:WAVCIS:CSI09:1,2011-05-06T21:00:00Z,29.1015,-89.9782,0.3798,11111222 
WAVCIS,ioos:station:WAVCIS:CSI09:1,2011-05-06T22:00:00Z,29.1015,-89.9782,0.3018,1111122 
WAVCIS,ioos:station:WAVCIS:CSI09:1,2011-05-06T22:00:00Z,29.1015,-89.9782,0.3018,11111222 
WAVCIS,ioos:station:WAVCIS:CSI09:1,2011-05-06T23:00:00Z,29.1015,-89.9782,0.2338,1111122 
WAVCIS,ioos:station:WAVCIS:CSI09:1,2011-05-06T23:00:00Z,29.1015,-89.9782,0.2338,11111222 
WAVCIS,ioos:station:WAVCIS:CSI09:1,2011-05-07T00:00:00Z,29.1015,-89.9782,0.1738,1111122 
WAVCIS,ioos:station:WAVCIS:CSI09:1,2011-05-07T00:00:00Z,29.1015,-89.9782,0.1738,11111222 
WAVCIS,ioos:station:WAVCIS:CSI09:1,2011-05-07T01:00:00Z,29.1015,-89.9782,0.1378,1111122 
WAVCIS,ioos:station:WAVCIS:CSI09:1,2011-05-07T01:00:00Z,29.1015,-89.9782,0.1378,11111222 
WAVCIS,ioos:station:WAVCIS:CSI09:1,2011-05-07T02:00:00Z,29.1015,-89.9782,0.1198,1111122 
WAVCIS,ioos:station:WAVCIS:CSI09:1,2011-05-07T02:00:00Z,29.1015,-89.9782,0.1198,11111222 
WAVCIS,ioos:station:WAVCIS:CSI09:1,2011-05-07T03:00:00Z,29.1015,-89.9782,0.1158,1111122 
WAVCIS,ioos:station:WAVCIS:CSI09:1,2011-05-07T03:00:00Z,29.1015,-89.9782,0.1158,11111222 
WAVCIS,ioos:station:WAVCIS:CSI09:1,2011-05-07T04:00:00Z,29.1015,-89.9782,0.1258,1111122 
WAVCIS,ioos:station:WAVCIS:CSI09:1,2011-05-07T04:00:00Z,29.1015,-89.9782,0.1258,11111222 
WAVCIS,ioos:station:WAVCIS:CSI09:1,2011-05-07T05:00:00Z,29.1015,-89.9782,0.1608,1111122 
WAVCIS,ioos:station:WAVCIS:CSI09:1,2011-05-07T05:00:00Z,29.1015,-89.9782,0.1608,11111222 
WAVCIS,ioos:station:WAVCIS:CSI09:1,2011-05-07T06:00:00Z,29.1015,-89.9782,0.2038,1111122 
WAVCIS,ioos:station:WAVCIS:CSI09:1,2011-05-07T06:00:00Z,29.1015,-89.9782,0.2038,11111222 
WAVCIS,ioos:station:WAVCIS:CSI09:1,2011-05-07T07:00:00Z,29.1015,-89.9782,0.2738,1111122 
WAVCIS,ioos:station:WAVCIS:CSI09:1,2011-05-07T07:00:00Z,29.1015,-89.9782,0.2738,11111222 
WAVCIS,ioos:station:WAVCIS:CSI09:1,2011-05-07T08:00:00Z,29.1015,-89.9782,0.3438,1111122 
WAVCIS,ioos:station:WAVCIS:CSI09:1,2011-05-07T08:00:00Z,29.1015,-89.9782,0.3438,11111222 
WAVCIS,ioos:station:WAVCIS:CSI09:1,2011-05-07T09:00:00Z,29.1015,-89.9782,0.4148,1111122 
WAVCIS,ioos:station:WAVCIS:CSI09:1,2011-05-07T09:00:00Z,29.1015,-89.9782,0.4148,11111222 
WAVCIS,ioos:station:WAVCIS:CSI09:1,2011-05-07T10:00:00Z,29.1015,-89.9782,0.4808,1111122 
WAVCIS,ioos:station:WAVCIS:CSI09:1,2011-05-07T10:00:00Z,29.1015,-89.9782,0.4808,11111222 
WAVCIS,ioos:station:WAVCIS:CSI09:1,2011-05-07T11:00:00Z,29.1015,-89.9782,0.5428,1111122 
WAVCIS,ioos:station:WAVCIS:CSI09:1,2011-05-07T11:00:00Z,29.1015,-89.9782,0.5428,11111222 
WAVCIS,ioos:station:WAVCIS:CSI09:1,2011-05-07T12:00:00Z,29.1015,-89.9782,0.5978,1111122 
WAVCIS,ioos:station:WAVCIS:CSI09:1,2011-05-07T12:00:00Z,29.1015,-89.9782,0.5978,11111222 
WAVCIS,ioos:station:WAVCIS:CSI09:1,2011-05-07T13:00:00Z,29.1015,-89.9782,0.6548,1111122 
WAVCIS,ioos:station:WAVCIS:CSI09:1,2011-05-07T13:00:00Z,29.1015,-89.9782,0.6548,11111222 
WAVCIS,ioos:station:WAVCIS:CSI09:1,2011-05-07T14:00:00Z,29.1015,-89.9782,0.6978,1111122 
WAVCIS,ioos:station:WAVCIS:CSI09:1,2011-05-07T14:00:00Z,29.1015,-89.9782,0.6978,11111222 
WAVCIS,ioos:station:WAVCIS:CSI09:1,2011-05-07T15:00:00Z,29.1015,-89.9782,0.7158,1111122 
WAVCIS,ioos:station:WAVCIS:CSI09:1,2011-05-07T15:00:00Z,29.1015,-89.9782,0.7158,11111222 
WAVCIS,ioos:station:WAVCIS:CSI09:1,2011-05-07T16:00:00Z,29.1015,-89.9782,0.7208,1111122 
WAVCIS,ioos:station:WAVCIS:CSI09:1,2011-05-07T16:00:00Z,29.1015,-89.9782,0.7208,11111222 
WAVCIS,ioos:station:WAVCIS:CSI09:1,2011-05-07T17:00:00Z,29.1015,-89.9782,0.7128,1111122 
WAVCIS,ioos:station:WAVCIS:CSI09:1,2011-05-07T17:00:00Z,29.1015,-89.9782,0.7128,11111222 
WAVCIS,ioos:station:WAVCIS:CSI09:1,2011-05-07T18:00:00Z,29.1015,-89.9782,0.6788,1111122 
WAVCIS,ioos:station:WAVCIS:CSI09:1,2011-05-07T18:00:00Z,29.1015,-89.9782,0.6788,11111222 
WAVCIS,ioos:station:WAVCIS:CSI09:1,2011-05-07T19:00:00Z,29.1015,-89.9782,0.6398,1111122 
WAVCIS,ioos:station:WAVCIS:CSI09:1,2011-05-07T19:00:00Z,29.1015,-89.9782,0.6398,11111222 
WAVCIS,ioos:station:WAVCIS:CSI09:1,2011-05-07T20:00:00Z,29.1015,-89.9782,0.5938,1111122 
WAVCIS,ioos:station:WAVCIS:CSI09:1,2011-05-07T20:00:00Z,29.1015,-89.9782,0.5938,11111222 
WAVCIS,ioos:station:WAVCIS:CSI09:1,2011-05-07T21:00:00Z,29.1015,-89.9782,0.5188,1111122 
WAVCIS,ioos:station:WAVCIS:CSI09:1,2011-05-07T21:00:00Z,29.1015,-89.9782,0.5188,11111222 
WAVCIS,ioos:station:WAVCIS:CSI09:1,2011-05-07T22:00:00Z,29.1015,-89.9782,0.4328,1111122 
WAVCIS,ioos:station:WAVCIS:CSI09:1,2011-05-07T22:00:00Z,29.1015,-89.9782,0.4328,11111222 
WAVCIS,ioos:station:WAVCIS:CSI09:1,2011-05-07T23:00:00Z,29.1015,-89.9782,0.3618,1111122 
WAVCIS,ioos:station:WAVCIS:CSI09:1,2011-05-07T23:00:00Z,29.1015,-89.9782,0.3618,11111222 
WAVCIS,ioos:station:WAVCIS:CSI09:1,2011-05-08T00:00:00Z,29.1015,-89.9782,0.2988,1111122 
WAVCIS,ioos:station:WAVCIS:CSI09:1,2011-05-08T00:00:00Z,29.1015,-89.9782,0.2988,11111222 
WAVCIS,ioos:station:WAVCIS:CSI09:1,2011-05-08T01:00:00Z,29.1015,-89.9782,0.2518,1111122 
WAVCIS,ioos:station:WAVCIS:CSI09:1,2011-05-08T01:00:00Z,29.1015,-89.9782,0.2518,11111222 
WAVCIS,ioos:station:WAVCIS:CSI09:1,2011-05-08T02:00:00Z,29.1015,-89.9782,0.2018,1111122 
WAVCIS,ioos:station:WAVCIS:CSI09:1,2011-05-08T02:00:00Z,29.1015,-89.9782,0.2018,11111222 
WAVCIS,ioos:station:WAVCIS:CSI09:1,2011-05-08T03:00:00Z,29.1015,-89.9782,0.1788,1111122 
WAVCIS,ioos:station:WAVCIS:CSI09:1,2011-05-08T03:00:00Z,29.1015,-89.9782,0.1788,11111222 
WAVCIS,ioos:station:WAVCIS:CSI09:1,2011-05-08T04:00:00Z,29.1015,-89.9782,0.1828,1111122 
WAVCIS,ioos:station:WAVCIS:CSI09:1,2011-05-08T04:00:00Z,29.1015,-89.9782,0.1828,11111222 
WAVCIS,ioos:station:WAVCIS:CSI09:1,2011-05-08T05:00:00Z,29.1015,-89.9782,0.2078,1111122 
WAVCIS,ioos:station:WAVCIS:CSI09:1,2011-05-08T05:00:00Z,29.1015,-89.9782,0.2078,11111222 
WAVCIS,ioos:station:WAVCIS:CSI09:1,2011-05-08T06:00:00Z,29.1015,-89.9782,0.2338,1111122 
WAVCIS,ioos:station:WAVCIS:CSI09:1,2011-05-08T06:00:00Z,29.1015,-89.9782,0.2338,11111222 
WAVCIS,ioos:station:WAVCIS:CSI09:1,2011-05-08T07:00:00Z,29.1015,-89.9782,0.2738,1111122 
WAVCIS,ioos:station:WAVCIS:CSI09:1,2011-05-08T07:00:00Z,29.1015,-89.9782,0.2738,11111222 
WAVCIS,ioos:station:WAVCIS:CSI09:1,2011-05-08T08:00:00Z,29.1015,-89.9782,0.3308,1111122 
WAVCIS,ioos:station:WAVCIS:CSI09:1,2011-05-08T08:00:00Z,29.1015,-89.9782,0.3308,11111222 
WAVCIS,ioos:station:WAVCIS:CSI09:1,2011-05-08T09:00:00Z,29.1015,-89.9782,0.3898,1111122 
WAVCIS,ioos:station:WAVCIS:CSI09:1,2011-05-08T09:00:00Z,29.1015,-89.9782,0.3898,11111222 
WAVCIS,ioos:station:WAVCIS:CSI09:1,2011-05-08T10:00:00Z,29.1015,-89.9782,0.4478,1111122 
WAVCIS,ioos:station:WAVCIS:CSI09:1,2011-05-08T10:00:00Z,29.1015,-89.9782,0.4478,11111222 
WAVCIS,ioos:station:WAVCIS:CSI09:1,2011-05-08T11:00:00Z,29.1015,-89.9782,0.4998,1111122 
WAVCIS,ioos:station:WAVCIS:CSI09:1,2011-05-08T11:00:00Z,29.1015,-89.9782,0.4998,11111222 
WAVCIS,ioos:station:WAVCIS:CSI09:1,2011-05-08T12:00:00Z,29.1015,-89.9782,0.5548,1111122 
WAVCIS,ioos:station:WAVCIS:CSI09:1,2011-05-08T12:00:00Z,29.1015,-89.9782,0.5548,11111222 
WAVCIS,ioos:station:WAVCIS:CSI09:1,2011-05-08T13:00:00Z,29.1015,-89.9782,0.6118,1111122 
WAVCIS,ioos:station:WAVCIS:CSI09:1,2011-05-08T13:00:00Z,29.1015,-89.9782,0.6118,11111222 
WAVCIS,ioos:station:WAVCIS:CSI09:1,2011-05-08T14:00:00Z,29.1015,-89.9782,0.6508,1111122 
WAVCIS,ioos:station:WAVCIS:CSI09:1,2011-05-08T14:00:00Z,29.1015,-89.9782,0.6508,11111222 
WAVCIS,ioos:station:WAVCIS:CSI09:1,2011-05-08T15:00:00Z,29.1015,-89.9782,0.6798,1111122 
WAVCIS,ioos:station:WAVCIS:CSI09:1,2011-05-08T15:00:00Z,29.1015,-89.9782,0.6798,11111222 
WAVCIS,ioos:station:WAVCIS:CSI09:1,2011-05-08T16:00:00Z,29.1015,-89.9782,0.6888,1111122 
WAVCIS,ioos:station:WAVCIS:CSI09:1,2011-05-08T16:00:00Z,29.1015,-89.9782,0.6888,11111222 
WAVCIS,ioos:station:WAVCIS:CSI09:1,2011-05-08T17:00:00Z,29.1015,-89.9782,0.6848,1111122 
WAVCIS,ioos:station:WAVCIS:CSI09:1,2011-05-08T17:00:00Z,29.1015,-89.9782,0.6848,11111222 
WAVCIS,ioos:station:WAVCIS:CSI09:1,2011-05-08T18:00:00Z,29.1015,-89.9782,0.6818,1111122 
WAVCIS,ioos:station:WAVCIS:CSI09:1,2011-05-08T18:00:00Z,29.1015,-89.9782,0.6818,11111222 
WAVCIS,ioos:station:WAVCIS:CSI09:1,2011-05-08T19:00:00Z,29.1015,-89.9782,0.6538,1111122 
WAVCIS,ioos:station:WAVCIS:CSI09:1,2011-05-08T19:00:00Z,29.1015,-89.9782,0.6538,11111222 
WAVCIS,ioos:station:WAVCIS:CSI09:1,2011-05-08T20:00:00Z,29.1015,-89.9782,0.6208,1111122 
WAVCIS,ioos:station:WAVCIS:CSI09:1,2011-05-08T20:00:00Z,29.1015,-89.9782,0.6208,11111222 
WAVCIS,ioos:station:WAVCIS:CSI09:1,2011-05-08T21:00:00Z,29.1015,-89.9782,0.5688,1111122 
WAVCIS,ioos:station:WAVCIS:CSI09:1,2011-05-08T21:00:00Z,29.1015,-89.9782,0.5688,11111222 
WAVCIS,ioos:station:WAVCIS:CSI09:1,2011-05-08T22:00:00Z,29.1015,-89.9782,0.5148,1111122 
WAVCIS,ioos:station:WAVCIS:CSI09:1,2011-05-08T22:00:00Z,29.1015,-89.9782,0.5148,11111222 
WAVCIS,ioos:station:WAVCIS:CSI09:1,2011-05-08T23:00:00Z,29.1015,-89.9782,0.4508,1111122 
WAVCIS,ioos:station:WAVCIS:CSI09:1,2011-05-08T23:00:00Z,29.1015,-89.9782,0.4508,11111222 
WAVCIS,ioos:station:WAVCIS:CSI09:1,2011-05-09T00:00:00Z,29.1015,-89.9782,0.3828,1111122 
WAVCIS,ioos:station:WAVCIS:CSI09:1,2011-05-09T00:00:00Z,29.1015,-89.9782,0.3828,11111222 
WAVCIS,ioos:station:WAVCIS:CSI09:1,2011-05-09T01:00:00Z,29.1015,-89.9782,0.3238,1111122 
WAVCIS,ioos:station:WAVCIS:CSI09:1,2011-05-09T01:00:00Z,29.1015,-89.9782,0.3238,11111222 
WAVCIS,ioos:station:WAVCIS:CSI09:1,2011-05-09T02:00:00Z,29.1015,-89.9782,0.2808,1111122 
WAVCIS,ioos:station:WAVCIS:CSI09:1,2011-05-09T02:00:00Z,29.1015,-89.9782,0.2808,11111222 
WAVCIS,ioos:station:WAVCIS:CSI09:1,2011-05-09T03:00:00Z,29.1015,-89.9782,0.2578,1111122 
WAVCIS,ioos:station:WAVCIS:CSI09:1,2011-05-09T03:00:00Z,29.1015,-89.9782,0.2578,11111222 
WAVCIS,ioos:station:WAVCIS:CSI09:1,2011-05-09T04:00:00Z,29.1015,-89.9782,0.2398,1111122 
WAVCIS,ioos:station:WAVCIS:CSI09:1,2011-05-09T04:00:00Z,29.1015,-89.9782,0.2398,11111222 
WAVCIS,ioos:station:WAVCIS:CSI09:1,2011-05-09T05:00:00Z,29.1015,-89.9782,0.2378,1111122 
WAVCIS,ioos:station:WAVCIS:CSI09:1,2011-05-09T05:00:00Z,29.1015,-89.9782,0.2378,11111222 
WAVCIS,ioos:station:WAVCIS:CSI09:1,2011-05-09T06:00:00Z,29.1015,-89.9782,0.2568,1111122 
WAVCIS,ioos:station:WAVCIS:CSI09:1,2011-05-09T06:00:00Z,29.1015,-89.9782,0.2568,11111222 
WAVCIS,ioos:station:WAVCIS:CSI09:1,2011-05-09T07:00:00Z,29.1015,-89.9782,0.2888,1111122 
WAVCIS,ioos:station:WAVCIS:CSI09:1,2011-05-09T07:00:00Z,29.1015,-89.9782,0.2888,11111222 
WAVCIS,ioos:station:WAVCIS:CSI09:1,2011-05-09T08:00:00Z,29.1015,-89.9782,0.3218,1111122 
WAVCIS,ioos:station:WAVCIS:CSI09:1,2011-05-09T08:00:00Z,29.1015,-89.9782,0.3218,11111222 
WAVCIS,ioos:station:WAVCIS:CSI09:1,2011-05-09T09:00:00Z,29.1015,-89.9782,0.3728,1111122 
WAVCIS,ioos:station:WAVCIS:CSI09:1,2011-05-09T09:00:00Z,29.1015,-89.9782,0.3728,11111222 
WAVCIS,ioos:station:WAVCIS:CSI09:1,2011-05-09T10:00:00Z,29.1015,-89.9782,0.4278,1111122 
WAVCIS,ioos:station:WAVCIS:CSI09:1,2011-05-09T10:00:00Z,29.1015,-89.9782,0.4278,11111222 